Dewpoint
37 26 25 24 24 26 24 30 32 32 33 32 29 24 23 24 26 31 32 33 32 29 28 28 28 28 27 27 27 27 31 29 29 29 29 29 29 28 26 24 24 25 25 28 26 26 26 26 26 28 27 29 31 30 28 28 30 29 28 28 28 27 26 25 25 25 24 22 21 21 20 21 22 23 24 23 23 24 23 25 25 26 25 25 24 26
36 26 26 27 29 24 25 33 33 33 32 28 25 23 23 25 23 30 32 34 34 27 25 28 28 27 27 27 27 27 30 28 29 29 29 29 28 28 25 25 24 25 27 25 25 25 25 24 27 27 28 32 30 29 27 28 30 28 26 27 27 25 24 25 23 24 21 19 20 20 19 19 21 21 21 21 21 21 22 23 24 24 22 20 21 23
25 26 27 26 26 25 30 35 33 32 28 27 22 20 21 24 28 31 32 32 33 30 26 22 23 26 25 26 27 27 30 31 31 30 30 29 28 28 26 24 25 24 25 25 24 25 24 26 26 27 28 28 29 28 27 28 28 25 22 25 23 23 22 20 22 21 19 20 20 19 19 19 19 20 20 19 19 18 19 19 20 20 19 18 18 20
24 27 28 29 29 31 30 31 33 30 29 25 24 23 25 27 23 22 30 32 33 29 24 24 24 25 27 27 27 27 25 29 31 36 34 33 29 29 27 26 25 24 25 25 24 23 23 24 25 27 28 27 28 27 28 27 26 21 23 23 19 21 19 19 20 21 18 21 20 19 19 19 18 17 20 14 14 14 15 16 15 14 15 17 19 20
27 31 25 32 33 30 31 29 29 26 23 27 28 23 22 24 24 21 26 30 26 26 28 26 27 27 27 27 26 27 28 33 34 33 32 30 32 31 30 27 26 24 25 25 24 24 23 24 24 27 27 27 27 28 28 27 25 20 19 23 19 18 19 22 20 15 17 19 15 16 16 17 17 15 14 14 14 13 16 15 13 13 14 16 17 18
28 29 30 33 30 31 29 25 26 27 24 22 25 26 25 26 24 27 28 27 21 23 30 28 22 17 26 26 23 27 28 29 31 32 31 30 28 29 28 25 26 26 28 26 24 24 24 24 24 27 27 26 26 27 27 25 24 21 19 22 20 18 18 22 17 12 16 14 14 15 14 15 15 14 14 13 12 13 11 11 11 12 13 15 14 14
29 29 31 32 34 31 29 25 28 26 23 23 22 26 25 19 24 26 26 21 22 21 24 29 17 17 24 22 23 25 26 28 31 31 31 30 28 29 29 26 25 25 26 26 25 24 24 25 24 26 26 25 26 27 27 24 23 21 18 19 18 17 18 21 16 12 17 13 12 12 12 12 12 11 12 11 13 13 12 13 11 12 12 14 13 13
33 29 28 31 29 28 24 22 25 24 24 23 23 25 22 22 20 22 21 21 22 25 32 31 23 18 17 22 24 24 25 27 30 31 31 30 28 29 30 28 26 26 26 26 26 24 24 25 25 26 27 25 26 27 26 23 22 20 17 18 16 16 18 20 12 13 14 13 13 12 13 15 13 12 11 11 12 13 15 12 12 13 14 14 15 15
27 29 31 29 29 24 24 28 29 30 23 25 26 27 24 25 26 27 21 21 22 18 21 25 26 17 16 22 23 26 23 25 28 31 32 32 30 29 31 28 27 26 27 26 25 24 24 26 27 28 27 25 25 27 26 22 22 20 18 17 16 15 17 18 11 13 11 14 13 13 13 12 12 12 14 14 13 13 13 12 12 13 13 13 13 14
30 30 30 33 26 24 30 26 26 28 26 30 29 24 25 27 28 28 23 21 22 17 19 20 22 15 17 24 22 25 23 24 26 30 31 32 30 29 31 29 28 27 28 27 26 25 27 28 28 28 27 25 25 26 27 22 21 17 18 15 16 16 18 14 10 10 11 13 14 13 13 11 11 12 12 13 12 13 14 13 14 13 12 12 12 13
29 33 35 30 26 28 27 27 28 30 31 31 29 29 25 24 24 24 25 22 21 17 17 20 23 20 17 20 21 21 21 24 27 29 31 33 30 30 30 29 29 28 28 27 26 26 30 29 29 28 26 25 25 26 25 23 20 18 19 15 15 17 18 12 10 11 10 12 11 13 12 10 10 12 13 13 13 14 14 13 14 13 12 13 13 13
35 36 31 30 34 34 31 31 35 33 34 33 29 27 25 24 21 20 21 20 17 17 17 18 23 24 15 18 24 26 28 27 28 27 30 31 30 31 30 30 29 28 28 27 26 28 30 29 29 27 24 25 25 25 24 22 20 19 18 15 15 17 14 9 10 10 11 12 12 12 11 11 11 12 13 13 13 13 12 12 13 13 13 11 12 11
26 26 27 32 32 29 29 28 35 37 29 27 23 22 22 19 20 17 18 16 18 18 16 19 22 19 17 18 22 29 27 29 28 30 32 30 30 30 29 29 29 28 26 27 26 30 30 30 28 26 24 25 25 25 22 22 19 17 18 13 14 15 11 7 10 10 10 11 10 11 12 11 13 12 13 13 12 12 12 12 12 12 11 11 11 10
23 29 29 32 31 31 26 20 20 21 22 24 22 23 21 17 15 13 16 17 18 19 19 21 20 16 18 21 23 27 29 30 31 31 32 30 30 29 28 28 28 29 26 27 27 30 30 29 28 26 25 25 25 22 22 21 18 16 16 13 14 15 12 9 10 10 10 10 10 11 12 11 11 12 14 12 12 12 12 13 12 12 11 11 10 10
18 18 25 30 23 28 26 21 23 23 23 22 28 23 21 20 15 14 17 16 16 19 20 22 18 17 19 26 27 28 31 32 32 33 33 31 30 29 29 27 27 27 25 26 27 30 29 29 27 25 25 24 24 21 22 20 17 16 15 14 13 14 10 9 10 10 10 10 10 12 12 11 12 13 13 12 14 12 11 12 12 11 11 11 10 10
24 20 27 32 28 27 27 28 28 26 25 25 25 25 24 20 20 19 21 19 18 20 19 18 20 20 21 28 30 31 31 32 32 33 32 32 30 28 28 28 28 28 27 27 28 30 29 28 26 25 25 24 23 21 22 20 17 16 14 13 14 13 8 8 11 10 10 9 10 12 12 11 14 14 13 13 13 11 11 11 11 10 10 10 10 10
23 17 30 33 31 19 21 25 27 28 22 23 24 23 22 22 20 19 22 23 22 21 19 19 21 22 24 27 28 29 31 31 32 32 32 32 31 28 28 28 26 27 26 26 28 29 29 27 25 25 25 23 22 21 21 20 16 15 13 12 13 11 8 9 11 10 10 10 10 12 11 11 11 11 11 11 11 10 11 11 9 10 10 10 10 11
19 20 29 30 30 28 28 26 28 29 28 25 22 22 29 26 22 20 18 19 18 17 16 20 20 22 23 22 26 27 27 29 30 31 31 32 31 26 28 27 27 27 26 26 25 29 29 27 25 24 24 23 21 21 20 18 15 15 14 11 13 11 8 9 10 9 10 9 11 12 11 10 10 10 10 11 11 9 9 8 8 9 10 9 10 11
22 23 26 24 27 32 31 29 27 31 32 28 22 24 23 23 21 21 20 15 16 15 18 18 21 23 23 24 25 25 26 27 30 31 31 31 30 28 25 26 27 27 27 26 25 29 29 27 25 24 23 22 20 20 20 17 15 15 12 13 14 12 9 10 11 9 10 10 13 14 12 11 11 10 10 11 10 8 8 8 8 8 8 8 9 9
24 20 23 26 23 27 24 24 23 25 30 32 30 25 25 22 22 20 21 19 21 18 17 17 21 20 22 25 24 25 25 28 30 31 31 32 31 28 26 27 28 27 27 26 25 28 28 28 26 24 22 22 21 20 20 16 14 13 13 11 14 12 9 10 9 9 9 10 11 12 11 11 11 10 10 9 8 7 7 8 8 7 6 7 9 8
21 19 20 26 30 28 19 21 19 21 21 22 23 23 23 22 23 24 22 20 19 16 17 19 18 20 25 25 25 25 27 29 31 31 32 32 31 27 25 27 28 27 27 26 25 26 28 28 26 24 23 23 21 22 20 16 13 14 12 11 13 11 10 10 9 8 9 10 11 11 10 10 10 9 9 8 7 6 6 6 9 6 6 7 7 7
22 21 20 20 22 23 22 23 21 20 19 21 21 21 22 22 21 19 19 22 21 19 17 18 18 22 25 26 26 28 29 31 31 33 33 33 31 26 25 26 26 27 27 26 25 26 28 28 27 25 24 23 21 21 19 15 14 12 9 11 13 11 10 9 9 9 9 9 11 10 9 9 8 8 8 7 7 7 6 6 7 5 5 5 6 7
23 22 19 21 22 25 19 19 21 26 25 25 22 21 22 21 22 21 17 20 22 22 21 23 20 22 25 27 27 28 30 31 32 33 34 33 31 25 26 27 27 26 26 27 25 26 29 28 28 26 25 22 21 21 18 14 13 13 10 10 13 11 9 9 8 9 10 10 10 9 9 8 7 7 7 7 6 6 5 5 5 6 4 5 5 6
26 21 22 22 27 24 21 23 21 23 25 24 23 21 22 22 22 21 21 21 20 21 20 21 19 22 25 28 30 30 31 32 32 34 34 30 30 25 25 25 26 26 26 26 27 27 29 29 29 27 25 23 21 20 18 14 12 12 10 11 12 11 9 8 8 9 9 9 9 8 8 7 7 5 6 6 6 4 4 4 4 6 4 4 5 5
24 20 20 22 15 19 21 19 20 24 24 21 21 21 22 24 21 22 21 21 19 22 21 19 18 21 25 25 26 27 27 27 27 29 30 30 30 26 25 25 26 27 27 26 27 27 28 29 28 27 24 22 21 20 17 13 11 11 10 11 12 11 10 9 9 9 9 8 7 7 7 6 5 5 5 5 5 4 4 3 3 4 3 3 4 4
26 25 22 14 10 9 8 10 14 22 21 23 24 24 22 22 21 20 21 21 19 22 22 20 22 23 23 26 26 26 27 27 28 30 31 32 31 27 27 28 27 27 27 27 27 27 26 28 29 25 23 22 21 19 15 12 11 10 10 11 12 11 9 9 9 9 9 8 7 7 5 5 5 5 5 4 3 3 2 3 3 2 2 3 3 3
23 22 20 20 14 13 16 18 21 24 22 20 22 22 21 22 23 21 21 21 22 22 21 22 23 23 25 25 25 26 26 27 28 31 31 31 31 29 28 28 28 27 27 27 27 27 29 29 27 25 23 21 20 17 14 11 10 10 9 9 11 11 10 10 8 8 8 6 6 5 5 4 4 4 4 3 2 2 2 2 1 0 0 2 2 2
22 22 23 23 23 22 20 19 20 22 19 19 21 22 24 22 22 20 22 21 24 21 20 23 25 24 24 24 25 26 26 27 29 30 30 31 30 28 28 28 29 25 26 27 27 27 29 29 27 24 22 20 19 16 12 10 10 9 9 9 11 10 10 11 8 8 6 6 5 4 4 4 3 4 4 3 2 2 1 1 0 -0 0 1 1 1
19 19 20 16 18 21 21 19 17 19 19 19 21 22 23 24 23 19 20 23 24 21 20 22 24 24 24 25 25 25 27 29 29 30 31 31 29 28 29 28 27 26 26 27 27 27 28 28 27 24 21 20 18 15 11 10 10 9 8 9 10 9 9 9 9 7 6 5 4 3 3 3 4 4 3 1 1 0 0 0 -0 -1 -1 -0 0 3
21 23 21 19 18 19 21 22 22 22 22 22 23 23 23 25 24 23 23 23 25 24 25 25 25 24 25 25 26 27 29 29 30 31 32 31 30 29 28 27 26 26 26 27 27 28 29 28 26 24 21 19 18 14 10 9 10 8 7 9 10 9 9 9 7 6 5 4 3 3 2 2 3 2 1 1 -0 -1 -1 -1 -1 -1 -2 -1 -1 0
21 20 20 19 19 21 22 25 22 24 22 21 21 23 24 25 25 26 24 24 26 25 25 25 25 25 26 27 28 30 29 30 31 31 31 31 31 29 28 27 26 27 27 27 27 28 29 28 25 23 19 18 17 13 11 10 10 8 7 9 10 9 8 8 6 5 4 3 2 2 1 1 1 1 1 -0 -1 -2 -1 -1 -2 -3 -2 -2 -1 -0
16 20 19 20 20 19 22 22 25 25 25 23 22 23 23 24 24 25 25 26 24 24 25 25 26 26 28 29 29 29 30 31 31 31 32 32 31 28 28 27 27 27 27 27 27 29 29 27 24 22 19 17 16 12 10 10 9 8 7 9 9 9 8 6 5 4 3 2 1 1 -0 -0 0 0 -0 -1 -2 -2 -2 -2 -2 -2 -2 -2 -1 0
19 21 22 21 17 18 23 24 23 22 22 23 25 24 24 25 25 26 26 27 27 25 23 24 25 26 27 28 28 29 30 31 31 32 32 31 30 28 27 27 27 27 27 27 28 29 29 26 22 20 18 17 15 11 9 10 9 8 9 9 9 8 6 5 3 1 1 1 0 -1 -1 -1 -1 -1 -2 -2 -1 -2 -1 -2 -2 -2 -2 -2 -0 0
19 20 22 18 15 19 19 20 21 22 18 18 25 31 28 24 27 25 26 28 29 28 26 26 26 27 28 28 29 29 30 32 32 33 32 31 29 29 28 27 28 28 27 27 28 29 27 23 21 19 17 16 13 10 9 10 9 9 9 9 8 6 3 3 1 -0 -1 -1 -1 -2 -2 -1 -1 -1 -1 -1 -1 -1 -1 -1 -1 -1 -1 -0 0 0
20 20 22 17 16 19 20 21 15 3 18 27 32 30 25 25 27 26 27 30 30 30 29 28 28 28 29 30 30 31 32 33 33 32 32 31 30 29 28 28 28 27 27 27 27 27 26 23 21 18 16 15 13 10 8 9 8 9 9 8 7 5 2 1 -0 -2 -2 -2 -2 -4 -3 -2 -2 -2 -1 -1 -1 -1 0 0 -0 -0 0 1 1 1
22 22 22 19 21 23 19 17 2 8 13 18 27 28 30 29 28 26 25 28 29 28 28 29 29 30 30 29 30 33 34 33 33 32 31 30 30 30 29 29 28 28 27 27 26 27 25 22 19 17 15 17 12 8 8 7 7 7 7 7 6 3 1 -1 -3 -5 -4 -4 -5 -5 -4 -2 -2 -1 -0 0 0 1 1 1 1 1 1 2 1 1
20 19 21 21 18 12 15 15 14 16 18 25 27 27 27 25 27 24 20 20 28 27 29 30 30 28 30 31 32 34 33 32 31 31 29 31 31 31 30 30 29 29 28 27 26 26 23 21 17 17 16 14 11 6 7 7 7 7 5 4 2 1 -2 -4 -6 -6 -5 -4 -4 -3 -2 -2 -0 1 1 1 2 2 2 2 2 2 3 2 1 1
20 18 20 15 16 18 17 17 16 13 5 18 30 31 33 30 31 31 24 24 27 28 30 28 27 28 30 31 33 32 31 30 29 29 29 31 32 31 30 30 29 29 28 26 26 26 23 20 15 14 13 8 8 7 7 5 6 5 3 2 1 -2 -5 -7 -7 -6 -4 -4 -4 -3 -2 -0 1 2 3 3 3 3 3 3 3 3 3 2 2 2
22 22 19 20 20 17 16 14 12 7 14 24 31 32 32 31 34 29 25 23 29 27 28 29 29 30 31 32 33 31 30 29 28 29 29 31 30 30 30 30 29 29 28 26 26 25 22 19 17 15 12 8 5 6 5 5 4 3 1 1 -2 -4 -6 -6 -6 -6 -5 -4 -3 -2 -0 1 3 3 3 4 4 4 4 3 3 4 3 3 3 4
20 22 21 20 15 19 16 15 15 14 18 26 32 30 29 34 33 28 18 18 30 32 32 32 31 32 32 32 31 30 28 29 29 30 30 31 31 31 30 28 28 29 28 27 25 24 22 17 13 11 12 9 5 6 5 5 3 1 -1 -3 -3 -5 -5 -6 -5 -4 -3 -3 -2 -1 1 2 4 4 4 4 4 4 4 5 4 3 3 3 4 5
20 20 22 21 20 22 22 20 18 20 23 28 30 28 33 34 28 19 15 25 30 30 29 29 32 33 33 32 31 30 31 32 32 31 30 31 30 30 29 28 29 28 28 26 24 24 20 16 15 13 11 9 6 6 6 6 2 0 -2 -2 -3 -5 -5 -4 -3 -2 -2 -1 -1 1 2 3 4 4 5 5 4 5 4 4 4 4 3 3 4 5
20 19 19 17 16 17 19 20 19 19 20 32 31 33 34 28 16 13 24 29 28 27 27 30 30 32 33 33 32 33 34 34 31 31 31 31 31 30 29 29 29 29 28 26 25 23 21 19 15 13 9 5 6 6 6 4 1 0 -3 -2 -4 -5 -4 -2 -2 -1 -1 -0 0 2 3 4 5 5 5 5 4 4 3 4 4 3 3 4 4 3
21 15 22 19 19 17 17 16 18 10 21 33 33 29 30 21 21 20 23 26 28 28 29 30 32 34 33 33 33 34 34 32 31 31 31 31 31 30 29 28 29 28 26 23 23 22 21 19 16 12 9 7 4 6 5 2 1 -1 -2 -2 -4 -4 -2 -1 -1 -1 0 1 2 3 4 4 4 4 4 4 4 3 3 3 3 3 3 2 2 3
21 12 18 20 24 18 19 14 14 22 28 33 26 15 29 24 20 22 28 28 28 29 29 30 32 34 33 33 33 33 33 32 31 30 31 31 31 30 29 28 28 29 27 25 24 21 20 17 17 13 9 7 5 5 4 0 0 0 -0 -0 -2 -1 -0 -1 -0 1 2 2 2 3 3 4 4 4 4 4 4 3 2 2 2 2 2 2 3 3
20 20 23 13 20 16 17 21 19 19 31 34 27 21 20 21 25 25 26 26 26 27 30 31 33 34 33 32 32 32 32 32 31 31 30 31 31 31 29 28 28 29 28 26 23 21 19 17 15 12 9 5 3 3 1 -0 -0 1 1 -1 -1 -1 -1 -0 -0 1 0 0 1 2 2 3 4 4 4 3 3 2 2 1 0 1 1 2 2 3
24 20 24 19 24 23 22 21 20 18 19 20 28 30 27 26 26 28 28 28 30 31 32 33 34 34 33 32 31 31 32 31 31 30 30 31 31 30 29 28 28 29 29 26 21 19 19 17 15 12 10 6 2 2 1 0 -1 0 1 -2 -1 -1 -1 -0 -2 -2 -1 -1 0 1 1 1 1 1 2 2 3 2 2 2 2 1 1 2 3 3
24 25 20 19 23 17 15 18 19 19 20 22 23 24 28 30 30 30 30 31 31 33 34 34 35 34 33 32 33 33 33 31 30 30 30 31 31 31 30 29 29 29 27 24 22 21 19 17 15 13 11 9 3 1 3 0 0 -0 -2 -2 -1 -0 -1 -1 -3 -2 -2 -1 -0 1 2 -0 2 2 2 1 1 2 3 3 2 1 1 2 2 3
23 23 20 21 18 15 14 13 15 15 17 18 20 21 22 24 27 28 31 32 33 34 34 35 34 33 33 33 33 33 33 32 30 30 31 32 32 31 30 29 28 29 29 25 22 21 19 18 16 15 13 10 7 3 3 1 -0 -1 -1 -1 -0 -1 -2 -3 -3 -4 -4 -2 -0 1 1 0 3 3 2 2 2 1 1 1 0 1 2 2 3 4
19 18 19 21 20 21 21 21 21 21 22 23 24 26 27 29 31 31 33 34 34 34 35 34 33 34 33 34 33 33 32 32 31 30 30 31 32 32 31 30 29 29 27 24 21 21 20 19 18 17 15 12 8 4 3 3 0 0 0 -0 -1 -3 -4 -4 -3 -5 -5 -2 0 -1 1 -1 -0 0 0 1 1 1 1 -1 1 3 3 3 6 9
21 21 17 17 19 19 18 15 16 18 17 16 26 30 30 32 32 33 32 32 32 34 34 34 34 34 34 34 33 33 32 32 31 29 29 31 32 32 31 30 29 29 27 24 22 22 21 20 19 18 16 13 8 4 6 4 1 0 0 -1 -2 -4 -5 -4 -6 -7 -4 -1 -3 -3 -2 -0 -1 -2 0 -0 -1 0 0 4 10 8 6 6 12 14
17 16 19 21 19 13 11 14 22 25 22 19 23 27 31 33 33 32 32 30 30 31 32 33 32 32 32 33 33 33 32 33 31 29 29 31 32 32 32 30 30 28 26 23 21 20 20 19 19 17 16 12 9 6 6 5 2 -1 -1 0 -0 -3 -5 -5 -5 -5 -4 -1 -2 -1 -0 -2 -1 -2 -1 -1 -1 -1 -1 -1 0 10 12 13 13 13